When you browse on this site, cookies collect data to enhance your experience and personalize the content and advertising you see.
Visit our Privacy Policy to learn more. By continuing to use the site, you agree to this use of cookies and data.
  • în România
  • Lista ţărilor
  • Pe 7 zile
  • Temperatura apei
  • Meteo pe hartă
  • Widget-uri
  • user-avatar
    Intrare

    Meteo pe oră la Warwick

    Astăzi, 29 Mai, Vineri

    Timp Temperatura Precipitaţii Vânt Presiune Umiditate
    00:00 +10°C° 0 mm 2 m/s 768 mmHg 70%
    01:00 +9°C° 0 mm 2 m/s 768 mmHg 72%
    02:00 +8°C° 0 mm 2 m/s 767 mmHg 73%
    03:00 +8°C° 0 mm 2 m/s 767 mmHg 75%
    04:00 +9°C° 0 mm 2 m/s 767 mmHg 75%
    05:00 +10°C° 0 mm 3 m/s 767 mmHg 75%
    06:00 +10°C° 0 mm 3 m/s 767 mmHg 75%
    07:00 +12°C° 0 mm 3 m/s 767 mmHg 71%
    08:00 +14°C° 0 mm 3 m/s 767 mmHg 68%
    09:00 +17°C° 0 mm 3 m/s 766 mmHg 64%
    10:00 +18°C° 0 mm 3 m/s 766 mmHg 62%
    11:00 +19°C° 0 mm 3 m/s 766 mmHg 60%
    12:00 +20°C° 0 mm 4 m/s 766 mmHg 58%
    13:00 +20°C° 0 mm 4 m/s 766 mmHg 59%
    14:00 +21°C° 0 mm 4 m/s 765 mmHg 61%
    15:00 +21°C° 0 mm 4 m/s 765 mmHg 62%
    16:00 +20°C° 0 mm 3 m/s 764 mmHg 66%
    17:00 +20°C° 0 mm 3 m/s 764 mmHg 70%
    18:00 +19°C° 0 mm 3 m/s 764 mmHg 74%
    19:00 +17°C° 0 mm 3 m/s 764 mmHg 79%
    20:00 +14°C° 0 mm 3 m/s 764 mmHg 83%
    21:00 +12°C° 0 mm 3 m/s 764 mmHg 88%
    22:00 +11°C° 0 mm 3 m/s 764 mmHg 87%
    23:00 +10°C° 0 mm 3 m/s 764 mmHg 87%

    Mâine, 30 Mai, Sâmbătă

    Timp Temperatura Precipitaţii Vânt Presiune Umiditate
    00:00 +9°C° 0 mm 3 m/s 764 mmHg 86%
    01:00 +8°C° 0 mm 3 m/s 764 mmHg 85%
    02:00 +7°C° 0 mm 2 m/s 764 mmHg 85%
    03:00 +6°C° 0 mm 2 m/s 764 mmHg 84%
    04:00 +7°C° 0 mm 2 m/s 764 mmHg 83%
    05:00 +8°C° 0 mm 2 m/s 764 mmHg 81%
    06:00 +9°C° 0 mm 2 m/s 764 mmHg 80%
    07:00 +11°C° 0 mm 3 m/s 764 mmHg 78%
    08:00 +13°C° 0 mm 3 m/s 764 mmHg 76%
    09:00 +17°C° 0 mm 4 m/s 764 mmHg 75%
    10:00 +18°C° 0 mm 4 m/s 763 mmHg 71%
    11:00 +19°C° 0 mm 4 m/s 763 mmHg 67%
    12:00 +20°C° 0 mm 4 m/s 763 mmHg 64%
    13:00 +21°C° 0 mm 4 m/s 763 mmHg 64%
    14:00 +21°C° 0 mm 4 m/s 763 mmHg 64%
    15:00 +21°C° 0 mm 4 m/s 762 mmHg 64%
    16:00 +20°C° 0 mm 4 m/s 762 mmHg 67%
    17:00 +20°C° 0 mm 4 m/s 762 mmHg 71%
    18:00 +19°C° 0 mm 3 m/s 762 mmHg 74%
    19:00 +17°C° 0 mm 3 m/s 762 mmHg 79%
    20:00 +16°C° 0 mm 3 m/s 763 mmHg 83%
    21:00 +13°C° 0 mm 3 m/s 763 mmHg 88%
    22:00 +12°C° 0 mm 3 m/s 763 mmHg 89%
    23:00 +11°C° 0 mm 3 m/s 763 mmHg 91%

    Poimâine, 31 Mai, Duminică

    Timp Temperatura Precipitaţii Vânt Presiune Umiditate
    00:00 +10°C° 0 mm 3 m/s 763 mmHg 92%
    01:00 +9°C° 0 mm 3 m/s 764 mmHg 92%
    02:00 +9°C° 0 mm 3 m/s 764 mmHg 92%
    03:00 +8°C° 0 mm 3 m/s 764 mmHg 92%
    04:00 +9°C° 0 mm 3 m/s 764 mmHg 90%
    05:00 +10°C° 0 mm 3 m/s 764 mmHg 88%
    06:00 +10°C° 0 mm 4 m/s 764 mmHg 86%
    07:00 +12°C° 0 mm 4 m/s 764 mmHg 81%
    08:00 +14°C° 0 mm 4 m/s 764 mmHg 76%
    09:00 +18°C° 0 mm 4 m/s 764 mmHg 71%
    10:00 +19°C° 0 mm 4 m/s 764 mmHg 68%
    11:00 +20°C° 0 mm 4 m/s 764 mmHg 64%
    12:00 +21°C° 0 mm 4 m/s 764 mmHg 60%
    13:00 +21°C° 0.1 mm 4 m/s 764 mmHg 61%
    14:00 +21°C° 0.1 mm 4 m/s 764 mmHg 62%
    15:00 +21°C° 0.1 mm 4 m/s 763 mmHg 63%
    16:00 +20°C° 0.1 mm 4 m/s 763 mmHg 69%
    17:00 +19°C° 0.1 mm 4 m/s 763 mmHg 75%
    18:00 +18°C° 0.1 mm 4 m/s 763 mmHg 80%
    19:00 +17°C° 0 mm 4 m/s 764 mmHg 82%
    20:00 +14°C° 0 mm 3 m/s 764 mmHg 84%
    21:00 +13°C° 0 mm 3 m/s 764 mmHg 86%
    22:00 +12°C° 0 mm 3 m/s 764 mmHg 88%
    23:00 +10°C° 0 mm 3 m/s 764 mmHg 90%

    1 Iunie, Luni

    Timp Temperatura Precipitaţii Vânt Presiune Umiditate
    00:00 +9°C° 0 mm 2 m/s 764 mmHg 91%
    01:00 +9°C° 0 mm 2 m/s 764 mmHg 92%
    02:00 +9°C° 0 mm 2 m/s 764 mmHg 92%
    03:00 +8°C° 0 mm 2 m/s 764 mmHg 92%
    04:00 +9°C° 0 mm 2 m/s 764 mmHg 90%
    05:00 +10°C° 0 mm 2 m/s 764 mmHg 88%
    06:00 +10°C° 0 mm 2 m/s 764 mmHg 86%
    07:00 +12°C° 0 mm 3 m/s 764 mmHg 81%
    08:00 +14°C° 0 mm 3 m/s 763 mmHg 75%
    09:00 +17°C° 0 mm 3 m/s 763 mmHg 69%
    10:00 +18°C° 0 mm 3 m/s 763 mmHg 68%
    11:00 +19°C° 0 mm 3 m/s 763 mmHg 66%
    12:00 +20°C° 0 mm 3 m/s 763 mmHg 65%
    13:00 +20°C° 0 mm 3 m/s 763 mmHg 64%
    14:00 +20°C° 0 mm 3 m/s 762 mmHg 63%
    15:00 +20°C° 0 mm 3 m/s 762 mmHg 63%
    16:00 +20°C° 0 mm 2 m/s 762 mmHg 66%
    17:00 +20°C° 0 mm 2 m/s 762 mmHg 69%
    18:00 +19°C° 0 mm 2 m/s 761 mmHg 72%
    19:00 +17°C° 0 mm 2 m/s 761 mmHg 76%
    20:00 +15°C° 0 mm 2 m/s 762 mmHg 81%
    21:00 +12°C° 0 mm 3 m/s 762 mmHg 86%
    22:00 +12°C° 0 mm 2 m/s 761 mmHg 87%
    23:00 +10°C° 0 mm 2 m/s 761 mmHg 88%

    2 Iunie, Marţi

    Timp Temperatura Precipitaţii Vânt Presiune Umiditate
    00:00 +9°C° 0 mm 2 m/s 761 mmHg 89%
    01:00 +9°C° 0 mm 2 m/s 761 mmHg 89%
    02:00 +9°C° 0 mm 2 m/s 760 mmHg 90%
    03:00 +9°C° 0 mm 1 m/s 760 mmHg 90%
    04:00 +10°C° 0 mm 1 m/s 760 mmHg 87%
    05:00 +10°C° 0 mm 1 m/s 760 mmHg 85%
    06:00 +11°C° 0 mm 1 m/s 759 mmHg 82%
    07:00 +13°C° 0 mm 2 m/s 759 mmHg 76%
    08:00 +15°C° 0 mm 2 m/s 759 mmHg 69%
    09:00 +16°C° 0 mm 2 m/s 759 mmHg 62%
    10:00 +17°C° 0 mm 2 m/s 759 mmHg 59%
    11:00 +18°C° 0 mm 2 m/s 758 mmHg 57%
    12:00 +19°C° 0 mm 2 m/s 758 mmHg 54%
    13:00 +20°C° 0 mm 2 m/s 758 mmHg 55%
    14:00 +20°C° 0 mm 2 m/s 757 mmHg 55%
    15:00 +20°C° 0 mm 2 m/s 757 mmHg 56%
    16:00 +20°C° 0 mm 2 m/s 756 mmHg 61%
    17:00 +19°C° 0 mm 2 m/s 756 mmHg 67%
    18:00 +19°C° 0 mm 2 m/s 756 mmHg 72%
    19:00 +17°C° 0 mm 2 m/s 756 mmHg 77%
    20:00 +16°C° 0 mm 3 m/s 756 mmHg 82%
    21:00 +14°C° 0 mm 3 m/s 756 mmHg 86%
    22:00 +13°C° 0 mm 3 m/s 755 mmHg 88%
    23:00 +13°C° 0 mm 4 m/s 755 mmHg 90%

    3 Iunie, Miercuri

    Timp Temperatura Precipitaţii Vânt Presiune Umiditate
    00:00 +12°C° 0 mm 4 m/s 755 mmHg 92%
    01:00 +12°C° 0.2 mm 4 m/s 755 mmHg 93%
    02:00 +12°C° 0.2 mm 4 m/s 755 mmHg 93%
    03:00 +13°C° 0.2 mm 5 m/s 754 mmHg 93%
    04:00 +12°C° 0.4 mm 5 m/s 754 mmHg 93%
    05:00 +11°C° 0.4 mm 6 m/s 754 mmHg 94%
    06:00 +11°C° 0.4 mm 6 m/s 754 mmHg 95%
    07:00 +11°C° 0.5 mm 6 m/s 754 mmHg 94%
    08:00 +11°C° 0.5 mm 7 m/s 754 mmHg 94%
    09:00 +11°C° 0.5 mm 7 m/s 754 mmHg 94%
    10:00 +11°C° 1.9 mm 7 m/s 754 mmHg 94%
    11:00 +12°C° 1.9 mm 7 m/s 753 mmHg 94%
    12:00 +12°C° 1.9 mm 7 m/s 753 mmHg 94%
    13:00 +12°C° 0.4 mm 7 m/s 753 mmHg 92%
    14:00 +13°C° 0.4 mm 8 m/s 753 mmHg 90%
    15:00 +13°C° 0.4 mm 8 m/s 753 mmHg 88%
    16:00 +13°C° 0 mm 8 m/s 753 mmHg 86%
    17:00 +13°C° 0 mm 8 m/s 753 mmHg 84%
    18:00 +13°C° 0 mm 8 m/s 753 mmHg 83%
    19:00 +12°C° 0 mm 8 m/s 753 mmHg 83%
    20:00 +12°C° 0 mm 8 m/s 754 mmHg 83%
    21:00 +11°C° 0 mm 7 m/s 754 mmHg 84%
    22:00 +10°C° 0 mm 7 m/s 754 mmHg 85%
    23:00 +10°C° 0 mm 6 m/s 754 mmHg 86%
    Arată mai mult